Retour au catalogue

BLOCK DM-SL R/B

ActifHEO
NORAD 36107·ROCKET BODY·🇷🇺 Russia

Lancé Nov 30, 2009 depuis Baikonur Cosmodrome

Loading…

Prochains Passages (prochaines 24 heures)

TLE

FraisSource: Space-Track

Époque: Sep 14, 2026, 22:17 UTC

1 36107U 09067B   26257.92876078 -.00000101  00000-0  00000-0 0  9991
2 36107  12.3337 301.2580 4433784 168.5241 233.4337  1.73595695106481

Suivez BLOCK DM-SL R/B en temps réel avec AllMySat

Download on the App Store